Simultaneous Nadir Overpasses (SNOs) Predictions

Prediction of SNOs between GOES-17 and LANDSAT-8 Satellite Orbit:

Table of predicted SNOs for the next 14.0 days since TLE Epoch: 11/4/2022
Index Date Time (GOES-17) GOES-17 Lat,Lon LANDSAT-8 Lat,Lon Distance(km) Time Diff (sec)
1 11/06/2022 07:05:18 0.04,-137.32 0.83,-133.56 427.69 80
2 11/06/2022 19:26:34 -0.04,-137.32 0.24,-138.72 158.43 80
3 11/08/2022 19:17:01 -0.04,-137.31 -0.34,-135.75 177.14 80
4 11/09/2022 07:38:24 0.04,-137.31 -0.76,-140.94 413.68 80
5 11/11/2022 07:26:12 0.03,-137.29 -0.10,-137.99 78.92 80
6 11/13/2022 07:11:19 0.02,-137.26 0.51,-135.02 255.39 80
7 11/13/2022 19:32:34 -0.02,-137.26 0.60,-140.17 331.38 80
8 11/15/2022 19:23:01 -0.01,-137.23 -0.03,-137.21 2.98 80
9 11/17/2022 19:10:47 -0.01,-137.19 -0.62,-134.24 336.01 80
10 11/18/2022 07:32:11 0.01,-137.18 -0.45,-139.43 255.10 80
